DW7980 Weather Reports


Display with metric or nautical units.
time (UTC)temp
F
wind
direction
speed
MPH
gust
MPH
rain 1hr
in
rain 24hr
in
rain mn
in
humidity
%
barometer
mb
20260902185542 59 0 0.0 2.0 0.06 0.10 0.10 87 1007.2
20260902185042 59 0 0.0 0.0 0.07 0.10 0.10 88 1007.3
20260902184552 59 0 0.0 0.0 0.06 0.09 0.09 87 1007.4
20260902184038 59 0 0.0 0.0 0.07 0.09 0.09 87 1007.4
20260902183538 59 0 0.0 0.0 0.07 0.09 0.09 87 1007.5
20260902183116 59 0 0.0 0.0 0.08 0.09 0.09 87 1007.7
20260902182539 59 0 0.0 0.0 0.07 0.08 0.08 86 1007.7
20260902182041 59 0 0.0 0.0 0.08 0.08 0.08 86 1007.9
20260902181558 59 0 0.0 0.0 0.07 0.07 0.07 86 1007.9
20260902181038 59 0 0.0 0.0 0.06 0.06 0.06 85 1007.9
20260902180538 60 0 0.0 0.0 0.06 0.06 0.06 84 1008.0
20260902180054 60 0 0.0 0.0 0.05 0.05 0.05 84 1008.0
20260902175539 60 0 0.0 0.0 0.04 0.04 0.04 84 1007.9
20260902175040 61 0 0.0 0.0 0.03 0.03 0.03 83 1007.9
20260902174551 61 0 0.0 0.0 0.03 0.03 0.03 82 1007.7
20260902174038 61 0 0.0 0.0 0.02 0.02 0.02 81 1007.8
20260902173538 61 0 0.0 0.0 0.02 0.02 0.02 80 1007.6
20260902173055 62 0 0.0 0.0 0.01 0.01 0.01 80 1007.5
20260902172537 62 0 0.0 0.0 0.01 0.01 0.01 80 1007.4
20260902172039 63 0 0.0 0.0 0.00 0.00 0.00 79 1007.4
20260902171609 63 0 0.0 0.0 0.00 0.00 0.00 77 1007.3
20260902171043 64 0 0.0 0.0 0.00 0.00 0.00 76 1007.2
20260902170542 64 0 0.0 0.0 0.00 0.00 0.00 76 1007.1
20260902170056 64 0 0.0 0.0 0.00 0.00 0.00 75 1007.1
20260902165538 64 0 0.0 0.0 0.00 0.00 0.00 74 1007.1
20260902165038 64 0 0.0 0.0 0.00 0.00 0.00 73 1007.1
20260902164559 64 0 0.0 0.0 0.00 0.00 0.00 72 1007.1
20260902164040 64 0 0.0 0.0 0.00 0.00 0.00 73 1007.0
20260902163538 64 0 0.0 0.0 0.00 0.00 0.00 73 1007.0
20260902163054 64 0 0.0 0.0 0.00 0.00 0.00 73 1007.1
20260902162540 63 0 0.0 0.0 0.00 0.00 0.00 74 1007.2
20260902162040 63 0 0.0 0.0 0.00 0.00 0.00 73 1007.1
20260902161555 63 0 0.0 0.0 0.00 0.00 0.00 73 1007.1
20260902161042 63 0 0.0 0.0 0.00 0.00 0.00 73 1007.1
20260902160538 63 0 0.0 0.0 0.00 0.00 0.00 74 1007.2
20260902160106 62 0 0.0 0.0 0.00 0.00 0.00 74 1007.3
20260902155538 62 0 0.0 0.0 0.00 0.00 0.00 74 1007.3
20260902155039 62 0 0.0 0.0 0.00 0.00 0.00 75 1007.3
20260902154558 62 0 0.0 1.0 0.00 0.00 0.00 75 1007.3
20260902154040 61 0 0.0 2.0 0.00 0.00 0.00 75 1007.4
20260902153539 61 0 0.0 2.0 0.00 0.00 0.00 75 1007.5
20260902153054 61 151 0.0 2.0 0.00 0.00 0.00 75 1007.5
20260902152541 61 152 0.0 2.0 0.00 0.00 0.00 74 1007.5
20260902152040 61 151 0.0 2.0 0.00 0.00 0.00 75 1007.7
20260902151551 60 0 0.0 2.0 0.00 0.00 0.00 76 1007.7
20260902151039 60 0 0.0 3.0 0.00 0.00 0.00 76 1007.7
20260902150541 60 149 0.0 3.0 0.00 0.00 0.00 75 1007.7
20260902150052 60 143 0.0 2.0 0.00 0.00 0.00 76 1007.8
20260902145546 60 0 0.0 4.0 0.00 0.00 0.00 75 1007.8
20260902145038 60 142 0.0 4.0 0.00 0.00 0.00 75 1007.9
20260902144555 60 0 1.0 5.0 0.00 0.00 0.00 76 1007.9
20260902144039 60 0 1.0 5.0 0.00 0.00 0.00 76 1008.0
20260902143539 60 0 0.0 3.0 0.00 0.00 0.00 76 1008.1
20260902143052 59 78 0.0 3.0 0.00 0.00 0.00 76 1008.1
20260902142539 59 0 0.0 3.0 0.00 0.00 0.00 77 1008.1
20260902142039 59 78 0.0 4.0 0.00 0.00 0.00 77 1008.2
20260902141610 59 0 0.0 4.0 0.00 0.00 0.00 77 1008.1
20260902141038 59 98 1.0 3.0 0.00 0.00 0.00 77 1008.3
20260902140540 59 98 0.0 2.0 0.00 0.00 0.00 77 1008.4
20260902140050 59 98 0.0 2.0 0.00 0.00 0.00 77 1008.4
20260902135541 59 0 0.0 2.0 0.00 0.00 0.00 76 1008.4
20260902135039 59 0 0.0 2.0 0.00 0.00 0.00 77 1008.5
20260902134557 59 103 0.0 2.0 0.00 0.00 0.00 77 1008.7
20260902134038 59 103 0.0 2.0 0.00 0.00 0.00 77 1008.7
20260902133539 59 0 0.0 2.0 0.00 0.00 0.00 77 1008.7
20260902133051 59 0 0.0 2.0 0.00 0.00 0.00 77 1008.7
20260902132538 59 75 0.0 2.0 0.00 0.00 0.00 77 1008.8
20260902132038 59 163 1.0 2.0 0.00 0.00 0.00 77 1008.8
20260902131601 59 0 0.0 2.0 0.00 0.00 0.00 77 1008.9
20260902131039 59 0 0.0 2.0 0.00 0.00 0.00 77 1009.0
20260902130538 59 171 0.0 2.0 0.00 0.00 0.00 77 1009.1
20260902130057 59 0 0.0 2.0 0.00 0.00 0.00 77 1009.1
20260902125543 59 0 0.0 2.0 0.00 0.00 0.00 77 1009.1
20260902125039 59 171 0.0 2.0 0.00 0.00 0.00 77 1009.2
20260902124601 60 0 0.0 0.0 0.00 0.00 0.00 76 1009.3
20260902124040 60 0 0.0 2.0 0.00 0.00 0.00 76 1009.4
20260902123538 60 0 0.0 5.0 0.00 0.00 0.00 76 1009.4
20260902123053 60 173 0.0 5.0 0.00 0.00 0.00 76 1009.5
20260902122539 60 0 1.0 3.0 0.00 0.00 0.00 76 1009.6
20260902122038 60 138 0.0 2.0 0.00 0.00 0.00 77 1009.6
20260902121604 60 0 0.0 3.0 0.00 0.00 0.00 76 1009.7
20260902121038 59 0 0.0 3.0 0.00 0.00 0.00 76 1009.8
20260902120538 59 196 1.0 3.0 0.00 0.00 0.00 77 1009.9
20260902120059 59 196 1.0 5.0 0.00 0.00 0.00 77 1009.9
20260902115538 59 180 1.0 5.0 0.00 0.00 0.00 78 1010.0
20260902115039 59 179 1.0 5.0 0.00 0.00 0.00 78 1010.0
20260902114557 59 158 1.0 3.0 0.00 0.00 0.00 79 1010.0
20260902114036 59 154 1.0 4.0 0.00 0.00 0.00 79 1010.1
20260902113539 58 128 1.0 4.0 0.00 0.00 0.00 79 1010.1
20260902113107 58 182 0.0 0.0 0.00 0.00 0.00 81 1010.2
20260902112538 58 0 0.0 0.0 0.00 0.00 0.00 81 1010.2
20260902112042 58 0 0.0 0.0 0.00 0.00 0.00 81 1010.3
20260902111559 58 0 0.0 0.0 0.00 0.00 0.00 81 1010.4
20260902111041 58 0 0.0 0.0 0.00 0.00 0.00 81 1010.4
20260902110538 58 0 0.0 0.0 0.00 0.00 0.00 81 1010.4
20260902110059 58 0 0.0 0.0 0.00 0.00 0.00 81 1010.4
20260902105545 58 0 0.0 0.0 0.00 0.00 0.00 81 1010.4
20260902105041 58 0 0.0 1.0 0.00 0.00 0.00 81 1010.5
20260902104554 58 0 0.0 2.0 0.00 0.00 0.00 81 1010.5
20260902104039 58 0 0.0 2.0 0.00 0.00 0.00 82 1010.6
20260902103538 58 0 0.0 1.0 0.00 0.00 0.00 82 1010.7
20260902103101 58 0 0.0 0.0 0.00 0.00 0.00 82 1010.6
20260902102538 57 0 0.0 0.0 0.00 0.00 0.00 82 1010.7
20260902102042 57 0 0.0 1.0 0.00 0.00 0.00 82 1010.7
20260902101612 57 0 0.0 1.0 0.00 0.00 0.00 82 1010.7
20260902101039 57 182 0.0 0.0 0.00 0.00 0.00 82 1010.7
20260902100539 57 0 0.0 0.0 0.00 0.00 0.00 82 1010.7
20260902100055 57 0 0.0 2.0 0.00 0.00 0.00 82 1010.8
20260902095539 57 0 0.0 2.0 0.00 0.00 0.00 82 1010.7
20260902095040 57 0 0.0 1.0 0.00 0.00 0.00 83 1010.9
20260902094555 57 0 0.0 1.0 0.00 0.00 0.00 83 1010.9
20260902094039 57 0 0.0 1.0 0.00 0.00 0.00 83 1011.1
20260902093541 57 0 0.0 1.0 0.00 0.00 0.00 83 1011.2
20260902093101 57 0 0.0 0.0 0.00 0.00 0.00 82 1011.2
20260902092541 57 0 0.0 0.0 0.00 0.00 0.00 83 1011.3
20260902092039 57 0 0.0 0.0 0.00 0.00 0.00 82 1011.3
20260902091555 57 0 0.0 0.0 0.00 0.00 0.00 82 1011.5
20260902091039 57 0 0.0 1.0 0.00 0.00 0.00 82 1011.4
20260902090539 57 0 0.0 1.0 0.00 0.00 0.00 82 1011.5
20260902090058 57 0 0.0 2.0 0.00 0.00 0.00 82 1011.5
20260902085540 57 0 0.0 3.0 0.00 0.00 0.00 82 1011.5
20260902085038 57 182 0.0 3.0 0.00 0.00 0.00 82 1011.6
20260902084553 57 182 1.0 2.0 0.00 0.00 0.00 82 1011.6
20260902084040 57 182 0.0 3.0 0.00 0.00 0.00 82 1011.6
20260902083540 57 182 0.0 3.0 0.00 0.00 0.00 82 1011.5
20260902083056 57 0 0.0 3.0 0.00 0.00 0.00 82 1011.5
20260902082542 58 0 0.0 2.0 0.00 0.00 0.00 82 1011.6
20260902082039 58 0 0.0 2.0 0.00 0.00 0.00 82 1011.6
20260902081557 58 0 0.0 2.0 0.00 0.00 0.00 82 1011.6
20260902081038 58 0 0.0 3.0 0.00 0.00 0.00 81 1011.6
20260902080539 58 176 1.0 3.0 0.00 0.00 0.00 81 1011.6
20260902080105 58 176 0.0 2.0 0.00 0.00 0.00 81 1011.6
20260902075539 59 0 0.0 1.0 0.00 0.00 0.00 80 1011.6
20260902075043 59 0 0.0 1.0 0.00 0.00 0.00 80 1011.6
20260902074558 59 0 0.0 0.0 0.00 0.00 0.00 80 1011.6
20260902074040 60 0 0.0 0.0 0.00 0.00 0.00 80 1011.6
20260902073538 60 0 0.0 1.0 0.00 0.00 0.00 79 1011.7
20260902073100 60 0 0.0 2.0 0.00 0.00 0.00 80 1011.7
20260902072539 60 0 0.0 2.0 0.00 0.00 0.00 80 1011.7
20260902072039 60 0 0.0 3.0 0.00 0.00 0.00 80 1011.8
20260902071557 60 0 0.0 3.0 0.00 0.00 0.00 80 1011.8
20260902071042 60 173 1.0 4.0 0.00 0.00 0.00 80 1011.8
20260902070538 60 165 1.0 4.0 0.00 0.00 0.00 79 1011.9
20260902065540 60 0 0.0 2.0 0.00 0.00 0.00 78 1012.0
20260902065043 60 0 0.0 2.0 0.00 0.00 0.00 78 1012.0
20260902064603 60 0 0.0 2.0 0.00 0.00 0.00 78 1012.1
20260902064038 60 196 0.0 2.0 0.00 0.00 0.00 78 1012.1
20260902063538 60 0 0.0 2.0 0.00 0.00 0.00 77 1012.2
20260902063056 60 0 0.0 1.0 0.00 0.00 0.00 77 1012.2
20260902062541 60 196 0.0 2.0 0.00 0.00 0.00 77 1012.2
20260902062038 61 0 0.0 3.0 0.00 0.00 0.00 76 1012.2
20260902061607 61 196 0.0 3.0 0.00 0.00 0.00 76 1012.2
20260902061043 61 197 0.0 3.0 0.00 0.00 0.00 76 1012.1
20260902060540 61 197 0.0 3.0 0.00 0.00 0.00 76 1012.2
20260902060057 61 197 1.0 3.0 0.00 0.00 0.00 75 1012.2
20260902055544 61 196 1.0 3.0 0.00 0.00 0.00 75 1012.2
20260902055041 62 0 1.0 3.0 0.00 0.00 0.00 75 1012.3
20260902054600 62 196 1.0 3.0 0.00 0.00 0.00 75 1012.4
20260902054042 62 196 1.0 5.0 0.00 0.00 0.00 75 1012.4
20260902053540 62 157 1.0 5.0 0.00 0.00 0.00 75 1012.5
20260902053051 62 159 0.0 4.0 0.00 0.00 0.00 75 1012.5
20260902052540 62 0 0.0 4.0 0.00 0.00 0.00 74 1012.5
20260902052040 62 0 0.0 3.0 0.00 0.00 0.00 74 1012.4
20260902051559 62 0 1.0 3.0 0.00 0.00 0.00 74 1012.4
20260902051042 62 0 0.0 3.0 0.00 0.00 0.00 74 1012.5
20260902050537 62 151 1.0 6.0 0.00 0.00 0.00 74 1012.5
20260902050104 62 194 1.0 6.0 0.00 0.00 0.00 74 1012.5
20260902045545 62 219 1.0 4.0 0.00 0.00 0.00 74 1012.4
20260902045038 62 219 1.0 4.0 0.00 0.00 0.00 74 1012.5
20260902044554 62 238 1.0 5.0 0.00 0.00 0.00 74 1012.4
20260902044039 62 212 1.0 5.0 0.00 0.00 0.00 74 1012.4
20260902043538 62 269 1.0 4.0 0.00 0.00 0.00 74 1012.5
20260902043053 62 194 1.0 4.0 0.00 0.00 0.00 74 1012.4
20260902042540 62 183 1.0 6.0 0.00 0.00 0.00 74 1012.4
20260902042040 62 172 1.0 6.0 0.00 0.00 0.00 74 1012.4
20260902041606 62 172 1.0 6.0 0.00 0.00 0.00 74 1012.3
20260902041039 62 203 1.0 3.0 0.00 0.00 0.00 74 1012.4
20260902040540 62 0 1.0 2.0 0.00 0.00 0.00 74 1012.4
20260902040057 63 0 0.0 3.0 0.00 0.00 0.00 74 1012.3
20260902035542 63 203 0.0 5.0 0.00 0.00 0.00 74 1012.3
20260902035039 63 203 1.0 5.0 0.00 0.00 0.00 74 1012.3
20260902034556 63 171 2.0 4.0 0.00 0.00 0.00 74 1012.3
20260902034038 63 234 1.0 6.0 0.00 0.00 0.00 74 1012.2
20260902033540 63 219 1.0 7.0 0.00 0.00 0.00 74 1012.3
20260902033110 63 201 1.0 7.0 0.00 0.00 0.00 73 1012.3
20260902032540 63 190 1.0 6.0 0.00 0.00 0.00 73 1012.3
20260902032040 63 183 2.0 6.0 0.00 0.00 0.00 73 1012.2
20260902031558 63 174 1.0 4.0 0.00 0.00 0.00 73 1012.3
20260902031039 63 202 0.0 3.0 0.00 0.00 0.00 73 1012.2
20260902030538 63 202 1.0 3.0 0.00 0.00 0.00 72 1012.2
20260902030054 63 201 1.0 3.0 0.00 0.00 0.00 72 1012.1
20260902025540 63 182 1.0 4.0 0.00 0.00 0.00 72 1012.2
20260902025038 64 182 1.0 4.0 0.00 0.00 0.00 72 1012.2
20260902024601 64 158 1.0 4.0 0.00 0.00 0.00 72 1012.3
20260902024038 64 190 1.0 4.0 0.00 0.00 0.00 71 1012.3
20260902023538 64 204 1.0 4.0 0.00 0.00 0.00 71 1012.1
20260902023114 64 200 1.0 6.0 0.00 0.00 0.00 71 1012.1
20260902022614 64 190 2.0 6.0 0.00 0.00 0.00 70 1012.1
20260902022039 64 186 0.0 5.0 0.00 0.00 0.00 70 1012.0
20260902021612 65 186 1.0 5.0 0.00 0.00 0.00 70 1012.0
20260902021039 65 170 1.0 4.0 0.00 0.00 0.00 70 1011.9
20260902020541 65 188 1.0 4.0 0.00 0.00 0.00 69 1011.8
20260902020106 65 188 1.0 4.0 0.00 0.00 0.00 69 1011.9
20260902015540 65 161 1.0 4.0 0.00 0.00 0.00 69 1012.0
20260902015037 65 215 1.0 4.0 0.00 0.00 0.00 68 1011.8
20260902014600 65 0 1.0 5.0 0.00 0.00 0.00 68 1011.8
20260902014042 66 186 2.0 6.0 0.00 0.00 0.00 68 1011.8
20260902013538 66 216 2.0 6.0 0.00 0.00 0.00 67 1011.8
20260902013100 66 179 1.0 4.0 0.00 0.00 0.00 66 1011.8
20260902012537 66 179 1.0 4.0 0.00 0.00 0.00 66 1011.8
20260902012042 66 178 1.0 4.0 0.00 0.00 0.00 66 1011.8
20260902011555 66 178 1.0 6.0 0.00 0.00 0.00 66 1011.8
20260902011041 66 174 2.0 6.0 0.00 0.00 0.00 66 1011.7
20260902010541 66 185 2.0 6.0 0.00 0.00 0.00 65 1011.7
20260902010100 66 192 2.0 6.0 0.00 0.00 0.00 65 1011.7
20260902005537 66 180 2.0 8.0 0.00 0.00 0.00 65 1011.7
20260902005041 67 200 3.0 8.0 0.00 0.00 0.00 64 1011.6
20260902004605 67 0 1.0 6.0 0.00 0.00 0.00 64 1011.6
20260902004037 67 178 1.0 6.0 0.00 0.00 0.00 64 1011.6
20260902003538 67 182 2.0 5.0 0.00 0.00 0.00 64 1011.5
20260902003104 67 174 1.0 8.0 0.00 0.00 0.00 64 1011.5
20260902002538 68 175 2.0 8.0 0.00 0.00 0.00 63 1011.4
20260902002043 68 165 1.0 4.0 0.00 0.00 0.00 63 1011.4
20260902001556 68 169 0.0 5.0 0.00 0.00 0.00 63 1011.4
20260902001040 68 161 1.0 6.0 0.00 0.00 0.00 63 1011.3
20260902000538 68 175 1.0 6.0 0.00 0.00 0.00 63 1011.2
20260902000058 68 180 1.0 5.0 0.00 0.00 0.00 63 1011.3
20260901235537 68 191 1.0 4.0 0.00 0.00 0.00 63 1011.3
20260901235038 68 112 1.0 5.0 0.00 0.00 0.00 63 1011.4
20260901234609 68 126 1.0 5.0 0.00 0.00 0.00 63 1011.4
20260901234040 68 129 1.0 6.0 0.00 0.00 0.00 63 1011.4
20260901233538 68 127 1.0 6.0 0.00 0.00 0.00 64 1011.4
20260901233103 68 211 2.0 6.0 0.00 0.00 0.00 63 1011.5
20260901232542 68 186 1.0 6.0 0.00 0.00 0.00 63 1011.5
20260901232041 68 190 1.0 6.0 0.00 0.00 0.00 63 1011.5
20260901231558 68 191 2.0 6.0 0.00 0.00 0.00 63 1011.5
20260901231041 68 215 1.0 7.0 0.00 0.00 0.00 64 1011.5
20260901230539 68 176 2.0 7.0 0.00 0.00 0.00 64 1011.5
20260901230135 68 182 1.0 5.0 0.00 0.00 0.00 64 1011.5
20260901225538 68 194 0.0 5.0 0.00 0.00 0.00 63 1011.5
20260901225038 68 221 1.0 5.0 0.00 0.00 0.00 63 1011.6
20260901224601 68 0 0.0 5.0 0.00 0.00 0.00 63 1011.6
20260901224041 68 136 1.0 7.0 0.00 0.00 0.00 62 1011.5
20260901223538 68 178 1.0 7.0 0.00 0.00 0.00 62 1011.6
20260901223111 68 198 1.0 8.0 0.00 0.00 0.00 61 1011.5
20260901222538 68 132 3.0 8.0 0.00 0.00 0.00 61 1011.5
20260901222037 69 171 2.0 8.0 0.00 0.00 0.00 61 1011.5
20260901221556 68 0 2.0 8.0 0.00 0.00 0.00 62 1011.5
20260901221039 68 64 1.0 4.0 0.00 0.00 0.00 62 1011.6
20260901220538 68 181 2.0 6.0 0.00 0.00 0.00 62 1011.6
20260901220108 68 190 2.0 6.0 0.00 0.00 0.00 62 1011.6
20260901215539 68 142 2.0 7.0 0.00 0.00 0.00 62 1011.5
20260901215038 68 188 1.0 7.0 0.00 0.00 0.00 63 1011.6
20260901214600 68 188 3.0 7.0 0.00 0.00 0.00 62 1011.5
20260901214038 68 154 2.0 6.0 0.00 0.00 0.00 62 1011.5
20260901213538 68 171 0.0 9.0 0.00 0.00 0.00 62 1011.7
20260901213059 68 180 2.0 9.0 0.00 0.00 0.00 62 1011.6
20260901212542 68 164 1.0 9.0 0.00 0.00 0.00 62 1011.7
20260901212039 69 175 3.0 8.0 0.00 0.00 0.00 60 1011.7
20260901211556 70 82 2.0 9.0 0.00 0.00 0.00 60 1011.6
20260901211040 70 109 1.0 9.0 0.00 0.00 0.00 60 1011.5
20260901210542 70 176 4.0 9.0 0.00 0.00 0.00 60 1011.7
20260901210059 70 288 2.0 9.0 0.00 0.00 0.00 62 1011.7
20260901205539 69 79 2.0 9.0 0.00 0.00 0.00 63 1011.6
20260901205039 69 0 4.0 8.0 0.00 0.00 0.00 62 1011.7
20260901204558 69 176 2.0 7.0 0.00 0.00 0.00 62 1011.8
20260901204043 71 225 2.0 7.0 0.00 0.00 0.00 61 1011.8
20260901203541 70 175 1.0 7.0 0.00 0.00 0.00 64 1011.9
20260901203056 68 119 2.0 7.0 0.00 0.00 0.00 67 1011.8
20260901202540 67 170 1.0 6.0 0.00 0.00 0.00 69 1011.9
20260901202038 66 157 1.0 5.0 0.00 0.00 0.00 69 1012.0
20260901201550 66 162 1.0 9.0 0.00 0.00 0.00 69 1012.0
20260901201039 65 171 2.0 9.0 0.00 0.00 0.00 70 1012.1
20260901200539 65 211 1.0 7.0 0.00 0.00 0.00 70 1012.1
20260901200106 65 167 1.0 6.0 0.00 0.00 0.00 70 1012.1
20260901195538 65 169 2.0 6.0 0.00 0.00 0.00 71 1012.1
20260901195040 64 171 1.0 9.0 0.00 0.00 0.00 73 1012.2
20260901194607 64 0 2.0 9.0 0.00 0.00 0.00 73 1012.2
20260901194038 64 166 1.0 6.0 0.00 0.00 0.00 73 1012.3
20260901193541 64 178 1.0 6.0 0.00 0.00 0.00 73 1012.3
20260901193058 64 170 2.0 8.0 0.00 0.00 0.00 73 1012.3
20260901192538 64 166 2.0 8.0 0.00 0.00 0.00 73 1012.3
20260901192040 64 156 1.0 4.0 0.00 0.00 0.00 74 1012.5
20260901191603 64 0 1.0 5.0 0.00 0.00 0.00 74 1012.5
20260901191041 64 163 1.0 5.0 0.00 0.00 0.00 74 1012.4
20260901190538 64 173 2.0 5.0 0.00 0.00 0.00 75 1012.5
20260901190111 63 216 0.0 3.0 0.00 0.00 0.00 76 1012.4